Kenosha, WI

12:06 AM CDT on September 22, 2017 (GMT -0500)
Kenosha Regional

Weather History for KENW - April, 2013

Change the Weather History Date:

Wednesday, April 24, 2013

  Actual Average Record
Temperature  
Mean Temperature 44 °F -  
Max Temperature 52 °F 54 °F 86 °F (1990)
Min Temperature 37 °F 37 °F 26 °F (1956)
Degree Days  
Heating Degree Days 21    
Moisture  
Dew Point 30 °F    
Average Humidity 67    
Maximum Humidity 93    
Minimum Humidity 36    
Precipitation  
Precipitation 0.04 in - - ()
Sea Level Pressure  
Sea Level Pressure 30.00 in    
Wind  
Wind Speed 6 mph (NNW)    
Max Wind Speed 15 mph    
Max Gust Speed 18 mph    
Visibility 9 miles    
Events Rain    
Averages and records for this station are not official NWS values.
T = Trace of Precipitation, MM = Missing Value Source: NWS Daily Summary

Daily Weather History Graph

Daily Weather History Graph

Search for Another Location

Airport or City:

Trip Planner

Search our weather history database for the weather conditions in past years. The results will help you decide how hot, cold, wet, or windy it might be!

Date:

Astronomy

Apr. 24, 2013 Rise Set
Actual Time 5:56 AM CDT 7:44 PM CDT
Civil Twilight 5:25 AM CDT 8:14 PM CDT
Nautical Twilight 4:49 AM CDT 8:51 PM CDT
Astronomical Twilight 4:09 AM CDT 9:30 PM CDT
Moon 6:46 PM CDT (4/24) 5:01 AM CDT (4/24)
Length of Visible Light 14h 48m
Length of Day
13h 48m
Waxing Gibbous, 98% of the Moon is Illuminated
Apr 24
Waxing Gibbous
Apr 25
Full
May 2
Last Quarter
May 9
New
May 17
First Quarter

Hourly Weather History & Observations

Time (CDT) Temp. Windchill Dew Point Humidity Pressure Visibility Wind Dir Wind Speed Gust Speed Precip Events Conditions
12:01 AM 39.2 °F 37.0 °F 35.6 °F 87% 29.94 in 10.0 mi NNE 3.5 mph - N/A   Overcast
12:34 AM 39.2 °F 35.9 °F 35.6 °F 87% 29.96 in 8.0 mi North 4.6 mph - 0.00 in Rain Light Rain
12:46 AM 39.2 °F 37.0 °F 35.6 °F 87% 29.95 in 6.0 mi NNE 3.5 mph - 0.01 in Rain Light Rain
12:53 AM 39.0 °F - 36.0 °F 89% 29.97 in 5.0 mi Calm Calm - 0.01 in Rain Light Rain
12:58 AM 37.4 °F 34.9 °F 35.6 °F 93% 29.95 in 5.0 mi NE 3.5 mph - 0.00 in Rain Light Rain
1:06 AM 37.4 °F 33.8 °F 35.6 °F 93% 29.96 in 5.0 mi NNE 4.6 mph - 0.01 in Rain Light Rain
1:33 AM 37.4 °F 30.8 °F 33.8 °F 87% 29.95 in 7.0 mi North 9.2 mph - 0.02 in Rain Light Rain
1:42 AM 37.4 °F 32.1 °F 33.8 °F 87% 29.96 in 8.0 mi North 6.9 mph - 0.02 in Rain Light Rain
1:53 AM 37.9 °F 33.5 °F 34.0 °F 86% 29.98 in 10.0 mi North 5.8 mph - 0.02 in   Overcast
2:23 AM 37.4 °F 32.8 °F 33.8 °F 87% 29.95 in 8.0 mi NNE 5.8 mph - 0.01 in Rain Light Rain
2:34 AM 37.4 °F 32.8 °F 35.6 °F 93% 29.95 in 9.0 mi NNE 5.8 mph - 0.01 in Rain Light Rain
2:46 AM 37.4 °F 32.8 °F 33.8 °F 87% 29.94 in 10.0 mi North 5.8 mph - 0.01 in Rain Light Rain
2:53 AM 37.9 °F 32.7 °F 34.0 °F 86% 29.96 in 10.0 mi NNE 6.9 mph - 0.01 in   Overcast
3:53 AM 37.9 °F 32.1 °F 33.1 °F 83% 29.97 in 10.0 mi NNE 8.1 mph - N/A   Overcast
5:53 AM 37.0 °F 31.6 °F 30.0 °F 76% 29.99 in 10.0 mi North 6.9 mph - N/A   Overcast
6:53 AM 37.0 °F 31.6 °F 28.9 °F 73% 30.00 in 10.0 mi NNW 6.9 mph - N/A   Overcast
7:53 AM 37.0 °F 31.6 °F 27.0 °F 67% 30.02 in 10.0 mi NNW 6.9 mph - N/A   Partly Cloudy
8:53 AM 37.9 °F 30.9 °F 27.0 °F 65% 30.02 in 10.0 mi NNW 10.4 mph - N/A   Scattered Clouds
9:53 AM 39.0 °F 33.4 °F 26.1 °F 60% 30.03 in 10.0 mi NNW 8.1 mph - N/A   Scattered Clouds
10:53 AM 41.0 °F 35.2 °F 26.1 °F 55% 30.04 in 10.0 mi NNW 9.2 mph - N/A   Partly Cloudy
11:53 AM 44.1 °F 37.7 °F 25.0 °F 47% 30.03 in 10.0 mi NW 12.7 mph 17.3 mph N/A   Scattered Clouds
12:53 PM 46.0 °F 40.6 °F 27.0 °F 47% 30.03 in 10.0 mi WNW 11.5 mph 16.1 mph N/A   Mostly Cloudy
1:53 PM 48.0 °F - 25.0 °F 41% 30.03 in 10.0 mi WNW 8.1 mph 17.3 mph N/A   Partly Cloudy
2:53 PM 48.0 °F - 25.0 °F 41% 30.04 in 10.0 mi WNW 8.1 mph - N/A   Scattered Clouds
3:53 PM 51.1 °F - 25.0 °F 36% 30.03 in 10.0 mi West 15.0 mph 18.4 mph N/A   Scattered Clouds
4:53 PM 51.1 °F - 27.0 °F 39% 30.03 in 10.0 mi West 9.2 mph - N/A   Partly Cloudy
5:53 PM 51.1 °F - 26.1 °F 38% 30.03 in 10.0 mi West 12.7 mph - N/A   Partly Cloudy
6:53 PM 48.9 °F - 27.0 °F 43% 30.03 in 10.0 mi WSW 12.7 mph - N/A   Clear
7:53 PM 46.0 °F 40.6 °F 27.0 °F 47% 30.05 in 10.0 mi SW 11.5 mph - N/A   Clear
8:53 PM 45.0 °F 40.6 °F 26.1 °F 48% 30.07 in 10.0 mi SW 8.1 mph - N/A   Clear
9:53 PM 44.1 °F 39.0 °F 28.0 °F 53% 30.09 in 10.0 mi SW 9.2 mph - N/A   Clear
10:53 PM 44.1 °F 38.1 °F 28.9 °F 55% 30.08 in 10.0 mi SSW 11.5 mph - N/A   Clear
11:53 PM 43.0 °F 37.2 °F 28.0 °F 56% 30.07 in 10.0 mi SSW 10.4 mph - N/A   Clear